TimePDT,TemperatureF,Dew PointF,Humidity,Sea Level PressureIn,VisibilityMPH,Wind Direction,Wind SpeedMPH,Gust SpeedMPH,PrecipitationIn,Events,Conditions,WindDirDegrees,DateUTC
12:56 AM,55.9,51.1,84,30.14,10.0,Calm,Calm,-,N/A,,Clear,0,2013-05-10 07:56:00
1:56 AM,55.0,51.1,86,30.15,10.0,Calm,Calm,-,N/A,,Clear,0,2013-05-10 08:56:00
2:56 AM,53.1,48.9,86,30.15,10.0,Calm,Calm,-,N/A,,Clear,0,2013-05-10 09:56:00
3:56 AM,53.1,50.0,89,30.15,6.0,South,3.5,-,N/A,,Clear,190,2013-05-10 10:56:00
4:56 AM,52.0,50.0,93,30.15,10.0,SE,4.6,-,N/A,,Clear,130,2013-05-10 11:56:00
5:56 AM,50.0,48.9,96,30.16,10.0,Calm,Calm,-,N/A,,Clear,0,2013-05-10 12:56:00
6:56 AM,54.0,50.0,86,30.18,10.0,Calm,Calm,-,N/A,,Clear,0,2013-05-10 13:56:00
7:56 AM,57.9,52.0,81,30.19,10.0,Calm,Calm,-,N/A,,Clear,0,2013-05-10 14:56:00
8:56 AM,63.0,51.1,65,30.19,10.0,Calm,Calm,-,N/A,,Clear,0,2013-05-10 15:56:00
9:56 AM,68.0,51.1,55,30.18,10.0,Calm,Calm,-,N/A,,Clear,0,2013-05-10 16:56:00
10:56 AM,72.0,52.0,49,30.17,10.0,Calm,Calm,-,N/A,,Clear,0,2013-05-10 17:56:00
11:56 AM,75.9,53.1,45,30.16,10.0,North,3.5,-,N/A,,Clear,10,2013-05-10 18:56:00
12:56 PM,77.0,52.0,42,30.14,10.0,Variable,3.5,-,N/A,,Clear,0,2013-05-10 19:56:00
1:56 PM,80.1,52.0,38,30.13,10.0,Calm,Calm,-,N/A,,Clear,0,2013-05-10 20:56:00
2:56 PM,82.0,55.0,39,30.12,10.0,NNW,3.5,-,N/A,,Clear,330,2013-05-10 21:56:00
3:56 PM,82.0,53.1,37,30.11,10.0,West,4.6,-,N/A,,Clear,280,2013-05-10 22:56:00
4:56 PM,82.0,51.1,34,30.10,10.0,Variable,4.6,-,N/A,,Clear,0,2013-05-10 23:56:00
5:56 PM,82.0,53.1,37,30.10,10.0,West,5.8,-,N/A,,Clear,280,2013-05-11 00:56:00
6:56 PM,78.1,51.1,39,30.10,10.0,WNW,6.9,-,N/A,,Clear,290,2013-05-11 01:56:00
7:56 PM,73.9,48.9,41,30.12,10.0,West,5.8,-,N/A,,Clear,280,2013-05-11 02:56:00
8:56 PM,70.0,50.0,49,30.14,10.0,West,8.1,-,N/A,,Clear,270,2013-05-11 03:56:00
9:56 PM,66.0,52.0,60,30.16,10.0,West,5.8,-,N/A,,Clear,270,2013-05-11 04:56:00
10:56 PM,63.0,52.0,67,30.17,10.0,WSW,4.6,-,N/A,,Clear,240,2013-05-11 05:56:00
11:56 PM,59.0,51.1,75,30.19,10.0,SSW,4.6,-,N/A,,Clear,200,2013-05-11 06:56:00